User: anonymous   Login
Location: Estes Park
(40.3770°N, 105.5210°W)
Time: 00:25:19
(UTC-06:00)
Language:

Envisat - Orbit

View from above orbital plane
View from above orbital plane
View from above satellite
View from above satellite

Ground track
Ground track

The orbit data is extracted from the following two-line orbital elements,

1 27386U 02009A   17294.82447329 -.00000011  00000-0  10029-4 0  9998
2 27386  98.2180 334.7235 0001282  87.8145 272.3177 14.37905842819278
Epoch (UTC): 21 October 2017 19:47:14
Eccentricity: 0.0001282
inclination: 98.2180°
perigee height: 764 km
apogee height: 766 km
right ascension of ascending node: 334.7235°
argument of perigee: 87.8145°
revolutions per day: 14.37905842
mean anomaly at epoch: 272.3177°
orbit number at epoch: 81927

The dashed part of the orbit path shows where the satellite is in the earth's shadow,  

DLR